This is the latest recevied weather packets stored in our database for station/object WC4PEM-4. If no packets are shown the sender has not sent any weather packets the latest 10 day(s).
| Time | Temp. | Humidity | Pressure | Rain* | Wind** | Luminosity | Snow |
|---|---|---|---|---|---|---|---|
| 1788368776 | 32.22° C | 67% | 1015.2 hPa | 0 mm | - | - | - |
| 1788368718 | 31.67° C | 69% | 1015.3 hPa | 0 mm | - | - | - |
| 1788368476 | 31.67° C | 69% | 1015.3 hPa | 0 mm | - | - | - |
| 1788368379 | 31.67° C | 67% | 1015.3 hPa | 0 mm | - | - | - |
| 1788368176 | 31.67° C | 67% | 1015.3 hPa | 0 mm | - | - | - |
| 1788367876 | 32.22° C | 68% | 1015.2 hPa | 0 mm | - | - | - |
| 1788367576 | 32.22° C | 66% | 1015.3 hPa | 0 mm | - | - | - |
| 1788367276 | 32.22° C | 70% | 1015.4 hPa | 0 mm | - | - | - |
| 1788366976 | 31.67° C | 69% | 1015.5 hPa | 0 mm | - | - | - |
| 1788366676 | 31.67° C | 70% | 1015.5 hPa | 0 mm | - | - | - |
| 1788366492 | 31.11° C | 71% | 1015.4 hPa | 0 mm | - | - | - |
| 1788366376 | 31.11° C | 71% | 1015.4 hPa | 0 mm | - | - | - |
| 1788366081 | 31.11° C | 71% | 1015.4 hPa | 0 mm | - | - | - |
| 1788365776 | 31.67° C | 71% | 1015.6 hPa | 0 mm | - | - | - |
| 1788365476 | 31.67° C | 72% | 1015.6 hPa | 0 mm | - | - | - |
| 1788365176 | 31.67° C | 71% | 1015.8 hPa | 0 mm | - | - | - |
| 1788364876 | 31.67° C | 71% | 1015.8 hPa | 0 mm | - | - | - |
| 1788364795 | 31.67° C | 71% | 1015.8 hPa | 0 mm | - | - | - |
| 1788364576 | 31.67° C | 71% | 1015.8 hPa | 0 mm | - | - | - |
| 1788364276 | 31.11° C | 74% | 1015.9 hPa | 0 mm | - | - | - |
| 1788364142 | 31.11° C | 72% | 1016 hPa | 0 mm | - | - | - |
| 1788363976 | 31.11° C | 72% | 1016 hPa | 0 mm | - | - | - |
| 1788363676 | 31.11° C | 71% | 1016 hPa | 0 mm | - | - | - |
| 1788363376 | 31.11° C | 73% | 1016.1 hPa | 0 mm | - | - | - |
| 1788363076 | 31.11° C | 73% | 1016.1 hPa | 0 mm | - | - | - |
* Rain latest hour (hover to see other rain measurements)
** Current wind speed in m/s (hover to see current wind gust speed)